Location: *
(49.0044°N, 9.5056°E)
Time: 23:39:10
(UTC+00:00)

Terra - Pass Details

Date: 22 September 2019
Orbit: 701 x 703 km, 98.2° (Epoch: 21 October)

Event Time Altitude Azimuth Distance (km) Brightness Sun altitude
Exits shadow 19:42:35 15° 43° (NE) 1,843 3.8 -23.1°
Drops below altitude 10° 19:44:30 10° 20° (NNE) 2,182 4.5 -23.4°
Sets 19:47:32 0° 359° (N) 3,105 5.6 -23.8°
